2018-084K (43681 NORAD) Tracking and Keplerian Element Data

This shows tracking and keplerian element data for the satellite.

Feedback or suggestion? Click here.




ElementValue
Catalog43681
Name2018-084K
Epoch Orbit221
Epoch Day317.37849313
Epoch Year2018
RAAN67.8322
Inclination97.838
Eccentricity0.0008112
Argument of Perigee308.9314
Mean Anonmoly51.1185
Mean Motion14.91592622
Decay Rate-3.19E-06
L11 43681U 18084K 18317.37849313 -.00000319 00000-0 -26166-4 0 9991
L22 43681 97.8380 67.8322 0008112 308.9314 51.1185 14.91592622 2214

Live tracking and technical data element details for 2018-084K (NORAD 43681). 2018-084K can be tracked NOW for your location showing map with azimuth and elevation plus other details from your city location.

Track the satellite on the map from your city or location and see movement details for azimuth, elevation, latitude, longitude, range, height, and movement on the map or in text.







IsCatalogInMostPopularTable: catalog: 43681, numindb: 3
Update: records affected: 1



GetName: 43681 2018-084K

Hit Count: updated at: Thu, 15 Nov 2018 04:57:05 GMT